Location: La Pernelle
(49.6188°N, 1.2999°W)
Time: 09:59:15
(UTC+00:00)

Genesis I - Pass Details

Date: 12 June 2021
Orbit: 476 x 543 km, 64.5° (Epoch: 27 July)

Event Time Altitude Azimuth Distance (km) Brightness Sun altitude
Exits shadow 21:16:40 - 180° (S) 2,092 5.8 -8.1°
Reaches altitude 10° 21:17:48 10° 172° (S) 1,701 5.3 -8.2°
Maximum altitude 21:20:53 24° 117° (ESE) 1,087 4.3 -8.5°
Drops below altitude 10° 21:24:03 10° 63° (ENE) 1,746 5.8 -8.9°
Sets 21:26:33 0° 49° (NE) 2,652 6.9 -9.1°
